Time,TemperatureF,DewpointF,PressureIn,WindDirection,WindDirectionDegrees,WindSpeedMPH,WindSpeedGustMPH,Humidity,HourlyPrecipIn,Conditions,Clouds,dailyrainin,SoftwareType,DateUTC
2016-08-31 00:02:00,78.4,38.6,29.81,SSE,158,5.0,15.0,24,0.00,,,0.00,Wunderground v.1.13,2016-08-31 06:02:00,
2016-08-31 00:22:00,78.4,38.6,29.81,SSE,158,5.0,15.0,24,0.00,,,0.00,Wunderground v.1.13,2016-08-31 06:22:00,
2016-08-31 00:32:00,78.1,38.4,29.81,SSE,164,5.0,5.0,24,0.00,,,0.00,Wunderground v.1.13,2016-08-31 06:32:00,
2016-08-31 00:42:00,77.7,39.1,29.81,SSE,168,5.0,5.0,25,0.00,,,0.00,Wunderground v.1.13,2016-08-31 06:42:00,
2016-08-31 00:52:00,76.8,38.3,29.81,SSE,159,5.0,5.0,25,0.00,,,0.00,Wunderground v.1.13,2016-08-31 06:52:00,
2016-08-31 01:02:00,76.3,37.9,29.81,SSE,157,5.0,7.0,25,0.00,,,0.00,Wunderground v.1.13,2016-08-31 07:02:00,
2016-08-31 01:12:00,76.0,38.6,29.81,SSE,159,5.0,5.0,26,0.00,,,0.00,Wunderground v.1.13,2016-08-31 07:12:00,
2016-08-31 01:22:00,76.0,39.6,29.81,SSE,150,4.0,10.0,27,0.00,,,0.00,Wunderground v.1.13,2016-08-31 07:22:00,
2016-08-31 01:32:00,76.0,38.6,29.81,SSE,163,5.0,5.0,26,0.00,,,0.00,Wunderground v.1.13,2016-08-31 07:32:00,
2016-08-31 01:42:00,75.6,39.2,29.81,SE,146,5.0,5.0,27,0.00,,,0.00,Wunderground v.1.13,2016-08-31 07:42:00,
2016-08-31 01:52:00,75.1,39.8,29.80,SSE,159,3.0,5.0,28,0.00,,,0.00,Wunderground v.1.13,2016-08-31 07:52:00,
2016-08-31 02:02:00,74.7,41.2,29.80,SE,138,4.0,4.0,30,0.00,,,0.00,Wunderground v.1.13,2016-08-31 08:02:00,
2016-08-31 02:12:00,74.2,41.6,29.80,South,176,4.0,4.0,31,0.00,,,0.00,Wunderground v.1.13,2016-08-31 08:12:00,
2016-08-31 02:22:00,74.0,42.3,29.80,SSE,155,5.0,8.0,32,0.00,,,0.00,Wunderground v.1.13,2016-08-31 08:22:00,
2016-08-31 02:31:00,73.9,42.2,29.80,SE,140,6.0,6.0,32,0.00,,,0.00,Wunderground v.1.13,2016-08-31 08:31:00,
2016-08-31 02:42:00,73.7,42.8,29.80,SSE,166,5.0,5.0,33,0.00,,,0.00,Wunderground v.1.13,2016-08-31 08:42:00,
2016-08-31 02:52:00,73.2,43.1,29.80,SSE,157,4.0,4.0,34,0.00,,,0.00,Wunderground v.1.13,2016-08-31 08:52:00,
2016-08-31 03:02:00,72.7,42.7,29.80,SSE,157,1.0,2.0,34,0.00,,,0.00,Wunderground v.1.13,2016-08-31 09:02:00,
2016-08-31 03:12:00,72.8,42.8,29.80,SE,135,2.0,2.0,34,0.00,,,0.00,Wunderground v.1.13,2016-08-31 09:12:00,
2016-08-31 03:22:00,73.2,43.1,29.80,SSE,163,2.0,2.0,34,0.00,,,0.00,Wunderground v.1.13,2016-08-31 09:22:00,
2016-08-31 03:32:00,72.7,42.7,29.80,SSE,151,1.0,2.0,34,0.00,,,0.00,Wunderground v.1.13,2016-08-31 09:32:00,
2016-08-31 03:42:00,71.8,42.7,29.80,SSE,153,1.0,3.0,35,0.00,,,0.00,Wunderground v.1.13,2016-08-31 09:42:00,
2016-08-31 03:52:00,70.8,41.8,29.79,SSE,155,1.0,1.0,35,0.00,,,0.00,Wunderground v.1.13,2016-08-31 09:52:00,
2016-08-31 04:02:00,69.1,40.3,29.79,SSE,155,0.0,0.0,35,0.00,,,0.00,Wunderground v.1.13,2016-08-31 10:02:00,
2016-08-31 04:12:00,68.4,39.7,29.79,SSE,155,0.0,0.0,35,0.00,,,0.00,Wunderground v.1.13,2016-08-31 10:12:00,
2016-08-31 04:22:00,67.6,40.4,29.79,SSE,155,0.0,0.0,37,0.00,,,0.00,Wunderground v.1.13,2016-08-31 10:22:00,
2016-08-31 04:31:00,66.4,40.0,29.79,SSE,155,0.0,0.0,38,0.00,,,0.00,Wunderground v.1.13,2016-08-31 10:31:00,
2016-08-31 04:42:00,65.2,39.6,29.79,SSE,155,0.0,0.0,39,0.00,,,0.00,Wunderground v.1.13,2016-08-31 10:42:00,
2016-08-31 04:51:00,63.5,39.4,29.79,SSE,155,0.0,0.0,41,0.00,,,0.00,Wunderground v.1.13,2016-08-31 10:51:00,
2016-08-31 05:02:00,62.3,40.1,29.79,SSE,155,0.0,0.0,44,0.00,,,0.00,Wunderground v.1.13,2016-08-31 11:02:00,
2016-08-31 05:12:00,61.5,41.6,29.79,SSE,155,0.0,0.0,48,0.00,,,0.00,Wunderground v.1.13,2016-08-31 11:12:00,
2016-08-31 05:22:00,60.7,43.0,29.79,SSE,155,0.0,0.0,52,0.00,,,0.00,Wunderground v.1.13,2016-08-31 11:22:00,
2016-08-31 05:32:00,59.5,41.9,29.79,SSE,155,0.0,0.0,52,0.00,,,0.00,Wunderground v.1.13,2016-08-31 11:32:00,
2016-08-31 05:42:00,58.6,41.0,29.79,SSE,155,0.0,0.0,52,0.00,,,0.00,Wunderground v.1.13,2016-08-31 11:42:00,
2016-08-31 05:52:00,58.0,42.4,29.79,SSE,155,0.0,0.0,56,0.00,,,0.00,Wunderground v.1.13,2016-08-31 11:52:00,
2016-08-31 06:01:00,57.6,41.5,29.79,SSE,155,0.0,0.0,55,0.00,,,0.00,Wunderground v.1.13,2016-08-31 12:01:00,
2016-08-31 06:12:00,57.6,41.5,29.79,SSE,155,0.0,0.0,55,0.00,,,0.00,Wunderground v.1.13,2016-08-31 12:12:00,
2016-08-31 06:22:00,57.5,41.9,29.80,SSE,155,0.0,0.0,56,0.00,,,0.00,Wunderground v.1.13,2016-08-31 12:22:00,
2016-08-31 06:32:00,57.5,41.9,29.80,SSE,155,0.0,0.0,56,0.00,,,0.00,Wunderground v.1.13,2016-08-31 12:32:00,
2016-08-31 06:42:00,57.2,42.1,29.80,SSE,155,0.0,0.0,57,0.00,,,0.00,Wunderground v.1.13,2016-08-31 12:42:00,
2016-08-31 06:52:00,56.9,39.9,29.80,SSE,155,0.0,0.0,53,0.00,,,0.00,Wunderground v.1.13,2016-08-31 12:52:00,
2016-08-31 07:02:00,56.9,39.9,29.80,SSE,155,0.0,0.0,53,0.00,,,0.00,Wunderground v.1.13,2016-08-31 13:02:00,
2016-08-31 07:12:00,57.0,39.5,29.80,SSE,155,0.0,0.0,52,0.00,,,0.00,Wunderground v.1.13,2016-08-31 13:12:00,
2016-08-31 07:22:00,57.2,39.7,29.80,SSE,155,0.0,0.0,52,0.00,,,0.00,Wunderground v.1.13,2016-08-31 13:22:00,
2016-08-31 07:32:00,57.2,39.2,29.80,SSE,155,0.0,0.0,51,0.00,,,0.00,Wunderground v.1.13,2016-08-31 13:32:00,
2016-08-31 07:42:00,58.0,39.5,29.80,SSE,155,0.0,0.0,50,0.00,,,0.00,Wunderground v.1.13,2016-08-31 13:42:00,
2016-08-31 07:52:00,58.9,41.3,29.79,SSE,155,0.0,0.0,52,0.00,,,0.00,Wunderground v.1.13,2016-08-31 13:52:00,
2016-08-31 08:02:00,60.2,42.0,29.79,SSE,155,0.0,0.0,51,0.00,,,0.00,Wunderground v.1.13,2016-08-31 14:02:00,
2016-08-31 08:12:00,61.3,42.0,29.79,SSE,155,0.0,0.0,49,0.00,,,0.00,Wunderground v.1.13,2016-08-31 14:12:00,
2016-08-31 08:22:00,62.6,43.7,29.79,SSE,155,0.0,0.0,50,0.00,,,0.00,Wunderground v.1.13,2016-08-31 14:22:00,
2016-08-31 08:31:00,62.3,44.4,29.79,SSE,155,0.0,0.0,52,0.00,,,0.00,Wunderground v.1.13,2016-08-31 14:31:00,
2016-08-31 08:42:00,62.3,43.9,29.79,SSE,155,0.0,0.0,51,0.00,,,0.00,Wunderground v.1.13,2016-08-31 14:42:00,
2016-08-31 08:52:00,64.2,44.1,29.79,SSE,155,0.0,0.0,48,0.00,,,0.00,Wunderground v.1.13,2016-08-31 14:52:00,
2016-08-31 09:02:00,66.1,45.3,29.79,SSE,155,0.0,0.0,47,0.00,,,0.00,Wunderground v.1.13,2016-08-31 15:02:00,
2016-08-31 09:12:00,67.3,45.2,29.79,SSE,155,0.0,0.0,45,0.00,,,0.00,Wunderground v.1.13,2016-08-31 15:12:00,
2016-08-31 09:22:00,68.9,45.5,29.79,SSE,155,0.0,0.0,43,0.00,,,0.00,Wunderground v.1.13,2016-08-31 15:22:00,
2016-08-31 09:32:00,70.8,46.6,29.79,SSE,155,0.0,0.0,42,0.00,,,0.00,Wunderground v.1.13,2016-08-31 15:32:00,
2016-08-31 09:42:00,71.5,45.2,29.79,SSE,155,0.0,0.0,39,0.00,,,0.00,Wunderground v.1.13,2016-08-31 15:42:00,
2016-08-31 09:52:00,72.8,45.0,29.79,SSE,155,0.0,0.0,37,0.00,,,0.00,Wunderground v.1.13,2016-08-31 15:52:00,
2016-08-31 10:02:00,75.3,45.7,29.78,SSE,155,0.0,0.0,35,0.00,,,0.00,Wunderground v.1.13,2016-08-31 16:02:00,
2016-08-31 10:12:00,77.6,47.0,29.78,SSE,155,0.0,0.0,34,0.00,,,0.00,Wunderground v.1.13,2016-08-31 16:12:00,
2016-08-31 10:32:00,81.1,43.9,29.77,SSE,155,0.0,0.0,27,0.00,,,0.00,Wunderground v.1.13,2016-08-31 16:32:00,
2016-08-31 10:42:00,82.0,44.7,29.77,SSE,155,0.0,0.0,27,0.00,,,0.00,Wunderground v.1.13,2016-08-31 16:42:00,
2016-08-31 10:52:00,82.8,47.3,29.76,SSE,155,0.0,0.0,29,0.00,,,0.00,Wunderground v.1.13,2016-08-31 16:52:00,
2016-08-31 11:02:00,84.5,43.7,29.76,SE,141,2.0,7.0,24,0.00,,,0.00,Wunderground v.1.13,2016-08-31 17:02:00,
2016-08-31 11:12:00,85.3,43.3,29.76,SE,130,2.0,8.0,23,0.00,,,0.00,Wunderground v.1.13,2016-08-31 17:12:00,
2016-08-31 11:22:00,85.9,41.4,29.75,SE,132,2.0,2.0,21,0.00,,,0.00,Wunderground v.1.13,2016-08-31 17:22:00,
2016-08-31 11:32:00,87.6,41.6,29.75,SE,146,1.0,8.0,20,0.00,,,0.00,Wunderground v.1.13,2016-08-31 17:32:00,
2016-08-31 11:42:00,87.8,40.4,29.75,SSE,149,3.0,12.0,19,0.00,,,0.00,Wunderground v.1.13,2016-08-31 17:42:00,
2016-08-31 11:52:00,88.4,39.5,29.74,SSE,156,5.0,7.0,18,0.00,,,0.00,Wunderground v.1.13,2016-08-31 17:52:00,
2016-08-31 12:02:00,89.0,38.5,29.73,SSE,150,6.0,6.0,17,0.00,,,0.00,Wunderground v.1.13,2016-08-31 18:02:00,
2016-08-31 12:12:00,89.7,37.5,29.73,SSE,150,5.0,5.0,16,0.00,,,0.00,Wunderground v.1.13,2016-08-31 18:12:00,
2016-08-31 12:22:00,89.5,35.7,29.73,South,179,7.0,7.0,15,0.00,,,0.00,Wunderground v.1.13,2016-08-31 18:22:00,
2016-08-31 12:32:00,89.9,36.1,29.73,SSE,165,6.0,10.0,15,0.00,,,0.00,Wunderground v.1.13,2016-08-31 18:32:00,
2016-08-31 12:42:00,90.5,36.5,29.73,ESE,112,5.0,7.0,15,0.00,,,0.00,Wunderground v.1.13,2016-08-31 18:42:00,
2016-08-31 12:52:00,91.0,36.9,29.72,SE,129,4.0,9.0,15,0.00,,,0.00,Wunderground v.1.13,2016-08-31 18:52:00,
2016-08-31 13:02:00,91.4,38.9,29.72,SE,144,7.0,7.0,16,0.00,,,0.00,Wunderground v.1.13,2016-08-31 19:02:00,
2016-08-31 13:12:00,91.6,35.7,29.72,SSE,157,4.0,4.0,14,0.00,,,0.00,Wunderground v.1.13,2016-08-31 19:12:00,
2016-08-31 13:22:00,91.6,33.8,29.71,SSE,159,6.0,6.0,13,0.00,,,0.00,Wunderground v.1.13,2016-08-31 19:22:00,
2016-08-31 13:32:00,91.8,32.0,29.71,SE,140,4.0,4.0,12,0.00,,,0.00,Wunderground v.1.13,2016-08-31 19:32:00,
2016-08-31 13:42:00,92.1,36.0,29.71,SE,142,5.0,5.0,14,0.00,,,0.00,Wunderground v.1.13,2016-08-31 19:42:00,
2016-08-31 13:52:00,92.9,32.8,29.71,SE,140,2.0,17.0,12,0.00,,,0.00,Wunderground v.1.13,2016-08-31 19:52:00,
2016-08-31 14:02:00,92.7,30.5,29.71,South,171,4.0,4.0,11,0.00,,,0.00,Wunderground v.1.13,2016-08-31 20:02:00,
2016-08-31 14:12:00,92.9,32.8,29.71,ESE,123,5.0,5.0,12,0.00,,,0.00,Wunderground v.1.13,2016-08-31 20:12:00,
2016-08-31 14:22:00,92.9,30.6,29.71,SSE,161,4.0,4.0,11,0.00,,,0.00,Wunderground v.1.13,2016-08-31 20:22:00,
2016-08-31 14:32:00,93.4,31.0,29.70,SE,130,4.0,4.0,11,0.00,,,0.00,Wunderground v.1.13,2016-08-31 20:32:00,
2016-08-31 14:42:00,93.2,28.5,29.70,SE,127,4.0,7.0,10,0.00,,,0.00,Wunderground v.1.13,2016-08-31 20:42:00,
2016-08-31 14:52:00,93.4,33.2,29.70,SE,142,5.0,6.0,12,0.00,,,0.00,Wunderground v.1.13,2016-08-31 20:52:00,
2016-08-31 15:02:00,93.2,28.5,29.70,SE,141,4.0,4.0,10,0.00,,,0.00,Wunderground v.1.13,2016-08-31 21:02:00,
2016-08-31 15:12:00,92.5,30.3,29.70,SSE,158,7.0,16.0,11,0.00,,,0.00,Wunderground v.1.13,2016-08-31 21:12:00,
2016-08-31 15:22:00,92.7,28.2,29.70,SE,133,5.0,13.0,10,0.00,,,0.00,Wunderground v.1.13,2016-08-31 21:22:00,
2016-08-31 15:32:00,92.9,28.3,29.69,SSE,157,5.0,7.0,10,0.00,,,0.00,Wunderground v.1.13,2016-08-31 21:32:00,
2016-08-31 15:42:00,93.4,31.0,29.69,SE,132,5.0,9.0,11,0.00,,,0.00,Wunderground v.1.13,2016-08-31 21:42:00,
2016-08-31 15:51:00,93.6,31.2,29.68,SE,144,3.0,3.0,11,0.00,,,0.00,Wunderground v.1.13,2016-08-31 21:51:00,
2016-08-31 16:02:00,94.0,29.1,29.68,SE,135,2.0,2.0,10,0.00,,,0.00,Wunderground v.1.13,2016-08-31 22:02:00,
2016-08-31 16:12:00,93.2,28.5,29.68,ESE,121,3.0,3.0,10,0.00,,,0.00,Wunderground v.1.13,2016-08-31 22:12:00,
2016-08-31 16:22:00,93.2,28.5,29.68,South,170,3.0,3.0,10,0.00,,,0.00,Wunderground v.1.13,2016-08-31 22:22:00,
2016-08-31 16:31:00,92.7,28.2,29.68,SE,131,5.0,5.0,10,0.00,,,0.00,Wunderground v.1.13,2016-08-31 22:31:00,
2016-08-31 16:42:00,92.9,25.7,29.68,SE,145,3.0,3.0,9,0.00,,,0.00,Wunderground v.1.13,2016-08-31 22:42:00,
2016-08-31 16:52:00,92.7,28.2,29.68,SSE,154,6.0,6.0,10,0.00,,,0.00,Wunderground v.1.13,2016-08-31 22:52:00,
2016-08-31 17:02:00,92.7,28.2,29.68,SE,132,3.0,3.0,10,0.00,,,0.00,Wunderground v.1.13,2016-08-31 23:02:00,
2016-08-31 17:12:00,92.1,27.7,29.68,ESE,115,3.0,4.0,10,0.00,,,0.00,Wunderground v.1.13,2016-08-31 23:12:00,
2016-08-31 17:22:00,91.6,27.3,29.68,SE,132,3.0,7.0,10,0.00,,,0.00,Wunderground v.1.13,2016-08-31 23:22:00,
2016-08-31 17:32:00,91.6,27.3,29.67,SE,132,3.0,3.0,10,0.00,,,0.00,Wunderground v.1.13,2016-08-31 23:32:00,
2016-08-31 17:42:00,91.6,29.6,29.67,SE,130,3.0,3.0,11,0.00,,,0.00,Wunderground v.1.13,2016-08-31 23:42:00,
2016-08-31 17:52:00,91.4,31.6,29.67,SSE,153,4.0,7.0,12,0.00,,,0.00,Wunderground v.1.13,2016-08-31 23:52:00,
2016-08-31 18:02:00,91.0,33.3,29.67,ESE,114,5.0,14.0,13,0.00,,,0.00,Wunderground v.1.13,2016-09-01 00:02:00,
2016-08-31 18:12:00,90.7,34.9,29.67,ESE,123,4.0,11.0,14,0.00,,,0.00,Wunderground v.1.13,2016-09-01 00:12:00,
2016-08-31 18:22:00,89.9,34.3,29.67,SE,128,4.0,4.0,14,0.00,,,0.00,Wunderground v.1.13,2016-09-01 00:22:00,
2016-08-31 18:32:00,89.9,34.3,29.67,ESE,114,2.0,2.0,14,0.00,,,0.00,Wunderground v.1.13,2016-09-01 00:32:00,
2016-08-31 18:42:00,89.5,35.7,29.67,SE,129,2.0,2.0,15,0.00,,,0.00,Wunderground v.1.13,2016-09-01 00:42:00,